COSMOS 1275 DEB, 12715

Orbit data source: Space-Track

COSMOS 1275 DEB, 12715 is space debris in LEO originally from a launch on Thu, 04 Jun 1981 UTC launched from the Plesetsk Missile And Space Complex (PKMTR). Debris objects in space refer to the collection of defunct objects orbiting the Earth. Examples of debris include non-operational satellites, rocket bodies, and fragments generated from explosions, collisions, or faulty payload assembly.

Loading next visibility...
Identifier
12715, 1981-053BK
Orbit
LEO
Country
Flag of CISCIS
Related business
Manufacturer
Unknown
Mission
Spacecraft
Bus & Motor
Unknown
Mass
Unknown
Launch date (UTC)
1981-06-04 (45 years ago)
Launch vehicle
Unknown
Launch site
Plesetsk Missile And Space Complex (PKMTR)
Object type
Payload
Rocket body
Debris
Shape & HBR
Unknown shape, 0.2 m
Radar Cross Section
Medium (>0.1 m² and <1 m²)

Expand to show TLE details & history
Last TLE update: 10 hours ago

TLE from 10 hours ago
0 COSMOS 1275 DEB
1 12715U 81053BK  26072.82223013  .00001990  00000-0  69395-3 0  9995
2 12715  83.1092 173.4973 0063751 161.8380 344.5562 14.33787746301793
Epoch: 2026-03-13T19:44Z
TLE epoch observation values (Epoch: 2026-03-13T19:44:00.683Z)
Latitude
33.591°
Longitude
-118.5369°
Altitude
739.572 km
Speed
7.511 km/s
True Right ascension
23h 15m 40s
True Declination
33° 25' 56"
Sunlit
Object was in daylight at epoch
Visualization orbit readout
Latitude
Unknown
Longitude
Unknown
Altitude
Unknown
Speed
Unknown
Apparent Right ascension
Unknown
Apparent Declination
Unknown
Sunlit
N/A
Visualization observer readout
Local Sidereal Time
10:39:46
Azimuth
Unknown
Elevation
Unknown
Doppler factor
Unknown
Orbital elements
Apogee altitude
821.768 km
Perigee altitude
730.55 km
Semi-major axis
7,154.296 km
Eccentricity
0.00638
Inclination
83.1092°
RAAN
173.4973°
Arg. of periapsis
161.838°
True anomaly
344.36016°
Mean anomaly
344.5562°
Eccentric anomaly
344.45833°
Mean motion
3.58668 °/min
Orbital period
100.37 mins
BSTAR
0.00069395
Loading maneuver chart data...
Computing Atmospheric mass density...
Loading historical data...
Loading historical data...
Loading historical data...
Loading historical data...
Loading historical data...
Loading historical data...
Loading historical data...

Documentation

Showing up to 5 results
|